DELTA 1 DEB, 7153

Orbit data source: Space-Track

DELTA 1 DEB, 7153 is space debris in SSO originally from a launch on Tue, 06 Nov 1973 UTC launched from the Air Force Western Test Range (AFWTR). Debris objects in space refer to the collection of defunct objects orbiting the Earth. Examples of debris include non-operational satellites, rocket bodies, and fragments generated from explosions, collisions, or faulty payload assembly.

Loading next visibility...
Identifier
7153, 1973-086DT
Orbit
SSO
Country
Flag of USUS
Related business
Manufacturer
Unknown
Mission
Spacecraft
Bus & Motor
Unknown
Mass
Unknown
Launch date (UTC)
1973-11-06 (52 years ago)
Launch vehicle
Unknown
Launch site
Air Force Western Test Range (AFWTR)
Object type
Payload
Rocket body
Debris
Shape & HBR
Unknown shape, 0.3 m
Radar Cross Section
Medium (>0.1 m² and <1 m²)

Expand to show TLE details & history
Last TLE update: 8 hours ago

TLE from 8 hours ago
0 DELTA 1 DEB
1  7153U 73086DT  26034.46366371  .00000052  00000-0  76563-3 0  9998
2  7153 102.1416   2.3230 0035343  25.7937  92.1383 12.35997372354213
Epoch: 2026-02-03T11:07Z
TLE epoch observation values (Epoch: 2026-02-03T11:07:40.544Z)
Latitude
59.46259°
Longitude
-96.96082°
Altitude
1,534.638 km
Speed
7.104 km/s
True Right ascension
13h 34m 24s
True Declination
59° 19' 36"
Sunlit
Object was in daylight at epoch
Visualization orbit readout
Latitude
Unknown
Longitude
Unknown
Altitude
Unknown
Speed
Unknown
Apparent Right ascension
Unknown
Apparent Declination
Unknown
Sunlit
N/A
Visualization observer readout
Local Sidereal Time
21:09:12
Azimuth
Unknown
Elevation
Unknown
Doppler factor
Unknown
Orbital elements
Apogee altitude
1,549.124 km
Perigee altitude
1,493.286 km
Semi-major axis
7,899.342 km
Eccentricity
0.00353
Inclination
102.1416°
RAAN
2.323°
Arg. of periapsis
25.7937°
True anomaly
92.54295°
Mean anomaly
92.1383°
Eccentric anomaly
92.34063°
Mean motion
3.09141 °/min
Orbital period
116.45 mins
BSTAR
0.00076563
Loading maneuver chart data...
Computing Atmospheric mass density...
Loading historical data...
Loading historical data...
Loading historical data...
Loading historical data...
Loading historical data...
Loading historical data...
Loading historical data...

Documentation

Showing up to 5 results
|